This demonstration page uses our WeatherBlox Daily Observations layout. Learn more.

Left ArrowRight Arrow

Hourly Observations for December 20, 2017

Temp ( °F °C ) Dew Point ( °F °C ) Humidity (%) Winds ( mph kmh ) Pressure ( in mb ) Visibility ( mi km ) Precip ( " mm )
12:53 am 00:53 Clear 41 5 35 1.7 79 79 W 6 9 30.04 1017 10 16 0.00 0.00
1:53 am 01:53 Clear 40 4.4 35 1.7 83 83 Calm 30.04 1017 10 16 0.00 0.00
2:53 am 02:53 Clear 36 2.2 33 0.6 89 89 E 7 11 30.05 1018 10 16 0.00 0.00
3:53 am 03:53 Clear 33 0.6 31 -0.6 92 92 Calm 30.05 1018 10 16 0.00 0.00
4:53 am 04:53 Clear 37 2.8 34 1.1 89 89 WNW 6 9 30.03 1017 10 16 0.00 0.00
5:53 am 05:53 Clear 31 -0.6 29 -1.7 92 92 NE 3 6 30.04 1017 10 16 0.00 0.00
6:53 am 06:53 Clear 30 -1.1 28 -2.2 92 92 NNE 3 6 30.05 1018 10 16 0.00 0.00
7:53 am 07:53 Sunny 29 -1.7 27 -2.8 92 92 Calm 30.07 1018 10 16 0.00 0.00
8:53 am 08:53 Sunny 37 2.8 33 0.6 86 86 Calm 30.06 1018 10 16 0.00 0.00
9:53 am 09:53 Sunny 48 8.9 37 2.8 66 66 NNW 5 7 30.04 1017 10 16 0.00 0.00
10:53 am 10:53 Sunny 58 14.4 35 1.7 42 42 W 14 22 30.02 1017 10 16 0.00 0.00
11:53 am 11:53 Sunny 63 17.2 34 1.1 34 34 W 14 22 29.99 1016 10 16 0.00 0.00
12:53 pm 12:53 Sunny 68 20 32 0 26 26 WSW 12 19 29.93 1014 10 16 0.00 0.00
1:53 pm 13:53 Sunny 71 21.7 29 -1.7 21 21 WSW 13 20 29.90 1012 10 16 0.00 0.00
2:53 pm 14:53 Sunny 73 22.8 28 -2.2 19 19 WSW 16 26 29.87 1012 10 16 0.00 0.00
3:53 pm 15:53 Sunny 72 22.2 25 -3.9 17 17 WSW 20 31 29.86 1011 10 16 0.00 0.00
4:53 pm 16:53 Sunny 70 21.1 26 -3.3 19 19 WSW 20 31 29.84 1011 10 16 0.00 0.00
5:53 pm 17:53 Clear 63 17.2 26 -3.3 25 25 WSW 10 17 29.86 1011 10 16 0.00 0.00
6:53 pm 18:53 Clear 59 15 24 -4.4 26 26 WSW 12 19 29.88 1012 10 16 0.00 0.00
7:53 pm 19:53 Clear 56 13.3 27 -2.8 33 33 SW 15 24 29.88 1012 10 16 0.00 0.00
8:53 pm 20:53 Clear 55 12.8 30 -1.1 38 38 SW 16 26 29.87 1011 10 16 0.00 0.00
9:53 pm 21:53 Clear 54 12.2 30 -1.1 40 40 SW 13 20 29.86 1011 10 16 0.00 0.00
10:53 pm 22:53 Clear 55 12.8 30 -1.1 38 38 SW 10 17 29.85 1011 10 16 0.00 0.00
11:53 pm 23:53 Clear 48 8.9 29 -1.7 48 48 SSW 10 17 29.85 1011 10 16 0.00 0.00

Powered by AerisWeather